Lid_Strength_Index
2 0 -1 -1 -2 -2 -2 -2 -1 -1 -2 -2 -2 -2 -2 -2 -2 -2 -2 -2 -2 -2 -2 -2 -2 -2 -2 -2 -2 -2 -2 -2 -1 -2 -2 -2 -2 -2 -2 -1 -1 -0 -2
1 -0 -1 -1 -2 -2 -2 -2 -2 -1 -2 -2 -2 -1 -2 -2 -2 -2 -2 -2 -2 -2 -2 -2 -2 -2 -2 -2 -2 -2 -1 -1 -1 -1 -1 -1 -2 -2 -1 -1 -1 -1 -1
0 -0 -0 -1 -2 -2 -2 -2 -2 -2 -2 -2 -2 -2 -2 -2 -2 -2 -2 -2 -2 -2 -2 -2 -2 -2 -2 -2 -1 -1 -1 -1 -1 -1 -1 1 1 -1 -1 -1 -2 -2 -2
0 -0 -0 -1 -2 -2 -1 -1 -2 -1 -2 -2 -2 -2 -2 -2 -2 -2 -2 -2 -2 -2 -2 -2 -2 -2 -1 -1 -1 -2 -2 -1 -1 -1 0 1 1 -2 -2 -2 -2 -2 -2
0 -0 -0 -1 -2 -2 -2 -2 -1 -1 -2 -2 -2 -2 -2 -2 -2 -2 -2 -2 -2 -2 -2 -2 -2 -1 -1 -1 -2 -2 -2 -1 -1 0 1 1 0 -1 -2 -2 -2 -2 -2
0 -0 -0 -1 -1 -2 -2 -2 -2 -2 -2 -2 -2 -2 -2 -2 -2 -2 -2 -2 -2 -2 -2 -2 -2 -1 -1 -1 -2 -2 -2 -1 -0 2 1 -1 -0 -2 -2 -2 -2 -2 -1
0 0 -0 -1 -1 -2 -2 -2 -2 -2 -2 -2 -2 -2 -2 -1 -2 -2 -2 -2 -2 -2 -2 -2 -1 -1 -1 -1 -1 -2 -1 -1 1 1 1 0 -1 -2 -2 -2 -1 -1 -1
0 0 -0 0 -0 -1 -1 -2 -2 -1 -2 -2 -2 -2 -2 -2 -2 -2 -2 -2 -2 -2 -2 -1 -1 -1 -1 -1 -1 -1 -1 -1 1 1 0 -0 -1 -2 -2 -2 -1 -1 0
0 0 -0 -0 0 0 -0 -1 -1 -2 -1 -2 -2 -2 -2 -2 -2 -2 -2 -2 -2 -2 -1 -1 -1 -1 -1 -1 -1 -1 -1 0 2 1 -0 -0 -2 -2 -2 -2 -1 -0 1
1 0 0 -0 -0 -0 -0 0 -0 -1 -1 -1 -1 -1 -1 -1 -1 -1 -1 -1 -1 -1 -1 -1 -2 -1 -1 -1 -1 -0 1 1 1 -0 -1 -1 -2 -2 -2 -1 -0 1 1
1 1 0 0 -0 -0 -0 1 1 1 1 0 0 1 1 -0 -0 -0 0 -1 -1 -1 -1 -2 -2 -1 -1 -0 1 2 2 3 0 -0 -0 -1 -2 -2 -1 -0 1 1 2
2 1 1 1 0 -0 -0 0 -0 0 1 2 1 1 1 1 1 0 1 1 -0 -0 -1 -2 -1 -0 2 4 4 3 5 4 3 2 0 -1 -1 -1 -1 0 1 1 2
2 2 1 1 1 -0 -0 -0 -0 -0 1 2 2 2 2 2 2 1 1 1 1 1 2 1 2 3 4 4 5 6 6 5 4 3 2 -1 -1 -0 0 1 1 2 2
2 2 1 0 0 0 -0 0 0 1 1 2 2 2 2 2 3 3 1 2 1 2 4 4 4 4 5 5 6 7 7 6 5 4 3 1 -0 0 0 1 2 2 2
3 2 2 1 0 0 0 0 -0 0 1 2 2 2 2 3 3 3 3 2 1 4 5 5 5 5 6 6 7 7 8 7 6 6 5 3 1 1 1 1 2 2 3
2 2 2 1 1 1 0 0 0 0 1 2 2 2 2 2 4 3 4 2 1 5 5 6 6 6 7 8 9 10 10 10 9 9 9 7 3 2 2 2 3 3 4
2 1 1 1 1 1 1 0 0 0 1 2 1 2 2 3 3 3 4 2 1 4 6 7 7 7 7 8 10 11 11 11 11 11 10 10 9 5 4 4 4 4 5
2 2 1 1 1 1 1 1 0 1 1 1 1 2 2 2 3 3 3 3 4 4 6 7 7 8 8 9 11 12 12 12 12 12 12 12 11 11 7 6 6 6 6
3 2 2 1 1 1 1 1 1 0 1 1 1 2 2 3 3 3 3 3 4 5 7 7 8 7 9 11 12 13 13 13 14 14 14 14 14 14 14 10 9 8 8
2 2 1 1 1 1 1 0 0 0 1 1 1 2 2 3 3 3 3 4 5 6 7 8 9 8 9 11 12 13 14 15 15 15 16 15 16 16 16 16 16 14 10
2 2 2 2 1 1 1 2 2 2 2 3 3 3 3 3 2 3 3 5 6 6 8 9 10 10 11 12 13 14 15 15 16 16 16 16 17 17 17 17 17 17 16
7 2 2 2 1 1 1 1 1 2 3 3 3 3 3 3 2 4 5 6 7 6 9 9 10 11 11 11 13 14 17 16 16 16 16 17 17 17 17 17 18 17 17
9 7 2 2 2 1 1 1 5 7 8 8 7 7 6 4 4 5 6 8 7 7 9 10 10 11 12 13 13 13 16 17 17 15 16 17 17 17 17 17 17 17 17
9 8 7 2 2 1 1 2 5 4 6 5 6 9 10 8 8 8 8 8 8 9 10 11 11 12 12 14 14 13 13 14 16 18 16 16 16 17 17 17 18 18 17
9 9 9 2 2 1 1 3 4 3 4 8 10 11 12 12 11 10 10 10 10 10 11 12 12 12 12 13 14 14 14 14 14 16 17 17 16 16 17 17 17 18 17
9 9 9 7 2 2 1 3 4 3 9 10 11 11 12 11 12 12 12 11 11 12 12 12 13 13 13 13 13 14 13 14 15 15 17 17 18 17 17 17 17 17 16